CZ-6A DEB

Satellite information

Favourite Embed

Satellite Type and Status

DEBRISIN ORBIT

Key statistics

Satellite CZ-6A DEB at a glance.

Uptime

907

Days in orbit

Revolutions

≈ 14.7

Per day

Orbit

SSO

Sun Synchronous Orbit

Inclination

98.6

Latest

Satellite identification and parameters

Extended collection of information and parameters for CZ-6A DEB.

Object identification

Identified? True

Debris? True

Object name: CZ-6A DEB

International designator: 2022-151QP

Object number (NORAD): 54902

Object ID (CCSDS): 54902

Country: PEOPLES REPUBLIC OF CHINA (PRC)

Current information (Y/N): Y

RCS size: SMALL

Orbital parameters

Period: 97.939 minutes

Inclination: 98.6266 deg

SMA: 7038.247 km

Apoapsis: 706.75 km

Periapsis: 613.475 km

RAAN: 166.4582 deg

Eccentricy: 0.0066263

Argument of periapsis: 99.0946 deg

Mean anomaly: 261.7764 deg

Mean motion: 14.70300084 rev/day

Mean motion (dot): 0.00026576 rev/day2

B* drag term: 0.0042489 1/REarth

Two-line elements (TLE)

Creation date: May 6, 2025, 3:54 a.m.

Reference frame: TEME

Reference center: EARTH

Epoch: May 5, 2025, 12:47 a.m. UTC

TLE line 0: 0 CZ-6A DEB

TLE line 1: 1 54902U 22151QP 25125.03276715 .00026576 00000-0 42489-2 0 9992

TLE line 2: 2 54902 98.6266 166.4582 0066263 99.0946 261.7764 14.70300084130319

Live tracking on map

Real-time ground track for satellite CZ-6A DEB.

In-orbit conjunctions

A list of the most updated potential collisions computed for object CZ-6A DEB.

Target Orbit TCA Probability of collision Miss distance Type
SL-14 R/B LEO 2025-01-05 19:36:58 0.0001476945 213.0 (m) ROCKET BODY
SL-8 R/B LEO 2024-11-13 05:42:03 0.0001239467 516.0 (m) ROCKET BODY
HILAT LEO 2024-08-12 11:52:28 0.0003287229 113.0 (m) PAYLOAD
COSMOS 540 LEO 2024-06-24 15:21:47 0.0002859981 979.0 (m) PAYLOAD
COSMOS 2251 DEB LEO 2024-06-15 20:32:20 0.0002477724 38.0 (m) DEBRIS

Associated space launch

Chinese satellite reported for atmospheric/ocean/environmental/spatial parameter research purposes, details TBD.

CZ-6A DEB was lifted into orbit during the mission ‘Long March 6A | Yunhai 3’, on board a Long March 6A space rocket.

The launch took place on Nov. 11, 2022, 10:52 p.m. from Launch Complex 9A.

For more information about the launch, click the button.

Launch to space Long March 6A | Yunhai 3
Long March 6A | Yunhai 3

Agency: N/A

Status: Launch Successful

Launch date: Nov. 11, 2022, 10:52 p.m. UTC

Rocket: Long March 6A

Launch pad: Launch Complex 9A

Location: Taiyuan Satellite Launch Center, People's Republic of China

...

Latest news about this satellite

There are no fresh news available about this satellite. Check back as we update our databases every day.


Newsletter sign-up

Weekly statistics, charts and insights to help you stay on top of the space industry.